Simultaneous Nadir Overpasses (SNOs) Predictions

Prediction of SNOs between AQUA and GOES-15 Satellite Orbit:

Table of predicted SNOs for the next 14.0 days since TLE Epoch: 10/10/2013
Index Date Time (AQUA) AQUA Lat,Lon GOES-15 Lat,Lon Distance(km) Time Diff (sec)
1 10/11/2013 10:25:52 -0.27,-132.63 0.24,-135.06 276.87 80
2 10/11/2013 22:47:16 -0.81,-137.82 -0.21,-135.00 321.25 80
3 10/13/2013 22:35:02 -0.20,-134.85 -0.21,-134.94 10.42 80
4 10/15/2013 22:22:48 0.42,-131.88 -0.21,-134.89 341.89 80
5 10/16/2013 10:44:04 0.61,-137.05 0.18,-134.93 240.06 80
6 10/18/2013 10:31:49 0.03,-134.07 0.19,-134.88 91.19 80
7 10/20/2013 10:19:34 -0.58,-131.10 0.19,-134.81 422.09 80
8 10/20/2013 22:40:58 -0.48,-136.29 -0.16,-134.73 176.92 80
9 10/22/2013 22:28:43 0.15,-133.32 -0.17,-134.66 153.38 80
10 10/23/2013 10:49:58 0.93,-138.48 0.14,-134.71 428.40 80




NCC Satellite Simultaneous Nadir Overpasses (SNOs) Prediction Service
